Location: Alma
(38.7220°N, 88.9090°W)
Time: 05:34:03
(UTC-06:00)

Vanguard 2 - Pass Details

Date: 17 November 2019
Orbit: 553 x 2938 km, 32.9° (Epoch: 13 December)

Event Time Altitude Azimuth Distance (km) Brightness Sun altitude
Rises 14:22:35 0° 261° (W) 2,893 11.3 20.9°
Reaches altitude 10° 14:27:11 10° 215° (SW) 1,823 11.7 20.3°
Maximum altitude 14:27:39 10° 208° (SSW) 1,807 11.3 20.2°
Drops below altitude 10° 14:28:06 10° 201° (SSW) 1,815 11.0 20.2°
Sets 14:32:35 0° 155° (SSE) 2,799 10.7 19.6°
